#timestamp,LO_Frequency,Hit,StdDev 
1599562815.1,286047000.3,N
1599562816.0,286047000.3,N
1599562835.8,286047002.7,N
1599562855.6,286047001.5,N
1599562875.5,286047002.8,N
1599562895.3,286046999.7,N
1599562915.2,286047000.1,N
1599562935.9,286047002.1,N
1599562955.7,286047002.6,N
1599562975.6,286047002.3,N
1599562995.4,286047002.7,N
1599563015.2,286047002.2,N
1599563035.1,286047002.5,N
1599563055.8,286047001.8,N
1599563075.7,286047001.5,N
1599563095.5,286047002.6,N
1599563115.4,286047002.4,N
1599563135.2,286047002.6,N
1599563155.0,286047002.1,N
1599563155.9,286047002.1,N
1599563175.8,286047002.0,N
1599563195.6,286047001.9,N
1599563215.4,286047003.8,Y
1599563235.3,286047002.7,P
1599563255.1,286047000.3,N
1599563275.9,286047002.6,N
1599563295.7,286047000.2,N
1599563315.5,286047002.8,N
1599563335.4,286047002.7,N
1599563355.2,286047001.5,N
1599563375.1,286047001.9,N
1599563376.0,286047001.9,N
1599563395.8,286047002.5,N
1599563415.6,286046999.8,N
1599563435.5,286047000.2,N
1599563455.3,286047002.4,N
1599563475.1,286047002.4,N
1599563495.9,286047002.1,N
1599563515.7,286047000.7,N
1599563535.6,286047001.0,N
1599563555.4,286047001.1,N
1599563575.2,286046998.4,N
1599563595.1,286047001.0,N
1599563596.0,286047001.0,N
1599563615.8,286047000.9,N
1599563635.6,286047000.0,N
1599563655.5,286047001.0,N
1599563675.3,286047001.2,N
1599563695.2,286047000.7,N
1599563715.9,286046998.3,N
1599563735.7,286046998.6,N
1599563755.6,286047000.9,N
1599563775.4,286047001.9,N
1599563795.2,286046999.8,N
1599563815.1,286047002.1,N
1599563816.0,286047002.1,N
1599563835.8,286047001.6,N
1599563855.7,286047002.7,N
1599563875.5,286047002.2,N
1599563895.3,286047002.3,N
1599563915.2,286047000.3,N
1599563935.0,286046999.8,N
1599563935.9,286046999.8,N
1599563955.8,286047002.3,N
1599563975.6,286047000.7,N
1599563995.4,286046998.6,N
1599564015.3,286046999.3,N
1599564035.1,286046998.7,N
1599564055.8,286046998.7,N
1599564075.7,286047001.2,N
1599564095.5,286046998.1,N
1599564115.4,286046999.1,N
1599564135.2,286046998.8,N
1599564155.0,286046998.5,N
1599564155.9,286046998.5,N
1599564175.8,286047000.2,N
1599564195.6,286046999.9,N
1599564215.4,286047000.7,N
1599564235.3,286047000.9,N
1599564255.1,286047000.5,N
1599564275.9,286047001.2,N
1599564295.7,286047001.1,N
1599564315.5,286046999.9,N
1599564335.4,286047001.2,N
1599564355.2,286046998.1,N
1599564375.0,286046999.0,N
1599564375.9,286046999.0,N
1599564395.8,286046998.1,N
1599564415.6,286046998.7,N
1599564435.5,286046999.4,N
1599564455.3,286046998.8,N
1599564475.1,286047000.7,N
1599564495.9,286047000.0,N
1599564515.7,286046999.9,N
1599564535.5,286047000.0,N
1599564555.4,286046998.5,N
1599564575.2,286046998.3,N
1599564595.1,286046998.5,N
1599564596.0,286046998.5,N
1599564615.8,286047000.3,N
1599564635.6,286047001.2,N
1599564655.5,286046998.5,N
1599564675.3,286046999.2,N
1599564695.2,286046999.0,N
1599564715.9,286046999.3,N
1599564735.7,286046999.3,N
1599564755.6,286046998.8,N
1599564775.4,286046999.4,N
1599564795.2,286046996.5,Y
1599564815.1,286046998.8,P
1599564816.0,286046998.8,P
1599564835.8,286046999.1,N
1599564855.7,286046999.0,Y
1599564875.5,286047000.8,P
1599564895.3,286047000.4,N
1599564915.2,286047000.6,N
1599564935.0,286046998.1,N
1599564935.9,286046998.1,N
1599564955.7,286047000.6,N
1599564975.6,286047000.4,N
1599564995.4,286047001.2,N
1599565015.3,286046999.3,N
1599565035.1,286046998.5,N
1599565036.0,286046998.5,N
1599565055.8,286047001.0,N
1599565075.7,286047000.4,N
1599565095.5,286047000.1,N
1599565115.3,286047002.8,N
1599565135.2,286046999.7,N
1599565155.0,286046999.9,N
1599565155.9,286046999.9,N
1599565175.8,286047000.5,N
1599565195.6,286047000.2,N
1599565215.4,286047002.3,N
1599565235.3,286047001.7,N
1599565255.1,286047002.5,N
1599565275.8,286047002.4,N
1599565295.7,286046999.8,N
1599565315.5,286047002.2,N
1599565335.4,286047001.6,N
1599565355.2,286047002.3,N
1599565375.0,286047001.3,N
1599565375.9,286047001.3,N
1599565395.8,286047002.0,N
1599565415.6,286047001.5,N
1599565435.4,286047002.8,N
1599565455.3,286047002.5,N
1599565475.1,286047002.5,N
1599565495.9,286047002.1,N
1599565515.7,286047002.3,N
1599565535.5,286047003.9,Y
1599565555.4,286047000.6,P
1599565575.2,286046998.1,P
1599565595.0,286046998.5,N
1599565596.0,286046998.5,N
1599565615.8,286046998.5,N
1599565635.6,286047001.1,N
1599565655.5,286047000.8,N
1599565675.3,286047000.7,N
1599565695.1,286046999.5,N
1599565715.9,286046998.7,N
1599565735.7,286046999.6,N
1599565755.5,286046999.1,N
1599565775.4,286046999.4,N
1599565795.2,286046999.5,N
1599565815.1,286046997.7,N
1599565816.0,286046997.7,N
1599565835.8,286046995.3,Y
1599565855.6,286046996.9,P
1599565875.5,286046999.5,N
1599565895.3,286046997.0,N
1599565915.1,286046999.6,N
1599565935.9,286046999.3,N
1599565955.7,286046999.0,N
1599565975.6,286046998.9,N
1599565995.4,286046998.6,N
1599566015.2,286046998.4,N
1599566035.1,286047000.6,N
1599566036.0,286047000.6,N
1599566055.8,286047000.6,N
1599566075.7,286047000.0,N
1599566095.5,286047001.0,N
1599566115.3,286047001.2,N
1599566135.2,286046998.1,N
1599566155.0,286047000.8,N
1599566155.9,286047000.8,N
1599566175.8,286046999.2,N
1599566195.6,286046999.3,N
1599566215.4,286046999.3,N
1599566235.3,286047000.9,N
1599566255.1,286046998.1,N
1599566275.9,286046999.9,N
1599566295.7,286047002.0,N
1599566315.5,286047002.5,N
1599566335.4,286047002.5,N
1599566355.2,286046999.9,N
1599566375.0,286046999.7,N
1599566376.0,286046999.7,N
1599566395.8,286047002.8,N
